sat.trackr.live / text

‹ back to catalog

COSMOS 2605

NORAD 67679 · 2026-023F

PAYLOAD ACTIVE UNKNOWN

§ Identity

Operator
Country
CIS
Launch date
2026-02-05
Launch site
PLMSC
Launch vehicle
Mass (kg)
RCS (m²)

External: N2YO · Heavens-Above · Gunter

§ Orbital elements

Epoch: 2026-09-20T10:18:01.156320Z

Period
94.31 min
Inclination
96.6130°
Eccentricity
0.0021188
Mean motion
15.26947073 rev/d
Perigee alt
470.4 km
Apogee alt
499.5 km
Semi-major
6,863.1 km
B*
2.7275e-4
RAAN
316.5712°
Arg perigee
143.7713°
Mean anomaly
216.4967°
Rev number
3,452

§ Raw data

COSMOS 26051 67679U 26023F   26263.42918005  .00007201  00000+0  27275-3 0  99912 67679  96.6130 316.5712 0021188 143.7713 216.4967 15.26947073 34526

JSON: /api/v1/satellites/67679 · /tle

For live sub-satellite position, see the globe view (requires WebGL).

§ Visibility from observer

Set your observer location to see the next 7 days of passes ≥ 10°. The values pass through the URL so the page stays shareable.

No JS? Fill the form by hand. The geolocation button needs JavaScript.